AA9VI-10 Weather Reports


Display with metric or nautical units.
time (UTC)temp
F
wind
direction
speed
MPH
gust
MPH
rain 1hr
in
rain 24hr
in
rain mn
in
humidity
%
barometer
mb
20260505013016 64 0.0 0.0 0.00 0.01 0.01 69 998.5
20260505012016 64 0.0 0.0 0.00 0.01 0.01 70 998.4
20260505011016 66 0.0 0.0 0.00 0.01 0.01 67 998.4
20260505010017 66 0.0 0.0 0.00 0.01 0.01 64 998.3
20260505005017 66 0.0 0.0 0.00 0.01 0.01 62 998.0
20260505004016 67 0.0 0.0 0.00 0.01 0.01 59 997.5
20260505003016 67 0.0 0.0 0.00 0.01 0.01 57 997.0
20260505002016 67 0.0 0.0 0.00 0.01 0.01 58 997.1
20260505001016 67 0.0 0.0 0.00 0.01 0.01 59 996.9
20260505000016 67 0.0 0.0 0.00 0.01 0.01 59 997.0
20260504235016 68 0.0 0.0 0.00 0.01 0.01 57 997.1
20260504234016 68 0.0 0.0 0.01 0.01 0.01 55 996.8
20260504233016 67 0.0 0.0 0.01 0.01 0.01 56 996.8
20260504232016 67 0.0 0.0 0.01 0.01 0.01 61 997.0
20260504231016 67 0.0 0.0 0.01 0.01 0.01 60 997.2
20260504230016 66 0.0 0.0 0.01 0.01 0.01 61 997.9
20260504225016 68 0.0 0.0 0.01 0.01 0.01 60 998.1
20260504224016 75 0.0 3.0 0.00 0.00 0.00 42 998.5
20260504223016 76 0.0 3.0 0.00 0.00 0.00 37 997.4
20260504222016 76 270 1.0 3.0 0.00 0.00 0.00 34 997.3
20260504221016 78 315 1.0 5.0 0.00 0.00 0.00 36 997.5
20260504220016 78 203 3.0 7.0 0.00 0.00 0.00 33 997.6
20260504215016 78 225 4.0 12.0 0.00 0.00 0.00 34 997.7
20260504214016 78 248 4.0 10.0 0.00 0.00 0.00 33 997.7
20260504213016 78 203 4.0 9.0 0.00 0.00 0.00 32 997.8
20260504212016 79 203 5.0 12.0 0.00 0.00 0.00 30 998.1
20260504211017 80 225 5.0 15.0 0.00 0.00 0.00 28 998.1
20260504210017 82 248 4.0 12.0 0.00 0.00 0.00 26 998.3
20260504205016 81 270 3.0 8.0 0.00 0.00 0.00 26 998.4
20260504204016 81 203 5.0 13.0 0.00 0.00 0.00 24 998.3
20260504203016 81 180 4.0 10.0 0.00 0.00 0.00 24 998.4
20260504202016 80 248 2.0 8.0 0.00 0.00 0.00 27 998.6
20260504201016 80 203 3.0 7.0 0.00 0.00 0.00 24 998.7
20260504200016 80 270 3.0 10.0 0.00 0.00 0.00 25 998.9
20260504195017 80 338 3.0 10.0 0.00 0.00 0.00 25 999.1
20260504194016 80 225 3.0 10.0 0.00 0.00 0.00 27 999.3
20260504193016 79 225 6.0 17.0 0.00 0.00 0.00 25 999.4
20260504192016 79 225 3.0 9.0 0.00 0.00 0.00 32 999.6
20260504191016 79 180 4.0 11.0 0.00 0.00 0.00 31 999.6
20260504190016 78 225 5.0 12.0 0.00 0.00 0.00 32 999.7
20260504185016 77 203 6.0 12.0 0.00 0.00 0.00 30 999.7
20260504184017 77 180 5.0 16.0 0.00 0.00 0.00 33 999.8
20260504183016 77 203 5.0 10.0 0.00 0.00 0.00 31 999.9
20260504182017 77 203 5.0 10.0 0.00 0.00 0.00 32 1000.0
20260504181016 76 203 5.0 15.0 0.00 0.00 0.00 31 1000.1
20260504180017 76 203 6.0 15.0 0.00 0.00 0.00 32 1000.1
20260504175016 76 248 5.0 16.0 0.00 0.00 0.00 30 1000.3
20260504174017 76 248 4.0 10.0 0.00 0.00 0.00 33 1000.5
20260504173016 75 225 5.0 14.0 0.00 0.00 0.00 34 1000.6
20260504172016 74 203 4.0 8.0 0.00 0.00 0.00 34 1000.8
20260504171016 74 180 6.0 13.0 0.00 0.00 0.00 34 1000.9
20260504151017 67 180 3.0 11.0 0.00 0.00 0.00 45 1002.5
20260504141016 61 0 4.0 13.0 0.00 0.00 0.00 55 1003.1
20260504081016 50 225 1.0 3.0 0.00 0.00 0.00 72 1003.7
20260504050016 58 0 3.0 8.0 0.00 0.00 0.00 59 1005.4
20260504045017 58 0 3.0 6.0 0.00 0.00 0.00 59 1005.4
20260504044017 58 0 3.0 6.0 0.00 0.00 0.00 59 1005.3
20260504043017 59 0 2.0 8.0 0.00 0.00 0.00 59 1005.3
20260504042017 59 0 2.0 5.0 0.00 0.00 0.00 58 1005.4
20260504041017 59 0 1.0 3.0 0.00 0.00 0.00 58 1005.3
20260504040017 59 0 2.0 5.0 0.00 0.00 0.00 58 1005.5
20260504035017 59 0 2.0 5.0 0.00 0.00 0.00 59 1005.5
20260504034017 59 0 1.0 3.0 0.00 0.00 0.00 59 1005.5
20260504033016 59 0 1.0 4.0 0.00 0.00 0.00 58 1005.7
20260504032017 60 0 1.0 4.0 0.00 0.00 0.00 58 1005.8
20260504031017 60 0 2.0 5.0 0.00 0.00 0.00 57 1006.0
20260504030017 60 0 1.0 3.0 0.00 0.00 0.00 57 1006.0
20260504025017 60 0 1.0 3.0 0.00 0.00 0.00 56 1006.0
20260504024017 61 0 2.0 5.0 0.00 0.00 0.00 56 1005.9
20260504023017 61 0 1.0 4.0 0.00 0.00 0.00 55 1006.0
20260504022017 61 0 1.0 3.0 0.00 0.00 0.00 54 1005.9
20260504021017 62 0 2.0 3.0 0.00 0.00 0.00 53 1005.9
20260504020017 62 0 1.0 3.0 0.00 0.00 0.00 52 1005.8
20260504015017 63 0 1.0 3.0 0.00 0.00 0.00 51 1005.7
20260504014017 63 0 1.0 3.0 0.00 0.00 0.00 50 1005.6